Regional Weather Roundup
Issued by NWS Wakefield, VA

Home | Current Version | Previous Version | Text Only | Print | Product List | Glossary On
Versions: 1 2 3 4 5 6 7 8 9 10 11 12 13 14 15 16 17 18 19 20 21 22 23 24 25 26 27
000
ASUS41 KAKQ 241115
RWRAKQ

REGIONAL WEATHER ROUNDUP
NATIONAL WEATHER SERVICE WAKEFIELD VA
700 AM EDT MON JUL 24 2017

Note: "fair" indicates few or no clouds below 12,000 feet with no
significant weather and/or obstructions to visibility. * = Denotes
station may not report precipitation (e.g., rain,snow,etc.),
thunder or fog.

VAZ042-051-052>054-056-241200-
NORTHERN VIRGINIA

CITY           SKY/WX    TMP DP  RH WIND       PRES   REMARKS
WASH NATIONAL  LGT RAIN  77  73  87 SW8       29.77R
DULLES         CLOUDY    74  71  91 CALM      29.77R
FORT BELVOIR   MOCLDY    78  69  74 CALM      29.77R
QUANTICO       LGT RAIN  76  73  91 SW9       29.78R
FREDERICKSBRG* CLOUDY    74  73  97 MISG      29.78R
STAFFORD*      MOCLDY    73  73  99 SW3       29.83R
WARRENTON      MOCLDY    75  68  78 SE3       29.78R
CULPEPER*      MOCLDY    75  71  86 CALM      29.79R
MANASSAS*      CLOUDY    75  71  87 S6        29.78R
LEESBURG*      CLOUDY    73  73 100 CALM      29.78R
WINCHESTER     CLEAR     68  64  88 NW3       29.80R
FRONT ROYAL*   MOSUNNY   72  66  83 CALM      29.79R
LURAY*         MOSUNNY   72  68  88 S3        29.81R
$$

VAZ048-049-060>072-079>083-241200-
CENTRAL AND SOUTH CENTRAL VIRGINIA

CITY           SKY/WX    TMP DP  RH WIND       PRES   REMARKS
RICHMOND       CLOUDY    73  70  90 SW9       29.81R
CHESTERFIELD*  NOT AVBL
PETERSBURG*    CLOUDY    72  67  85 CALM      29.82S
HANOVER        MOCLDY    73  69  87 SW6       29.82R
TAPPAHANNOCK*  MOCLDY    73  73 100 S8        29.80R
QUINTON*       FAIR      72  72 100 S5        29.79S
CHARLOTTSVILLE CLOUDY    75  70  84 SW8       29.80R
GORDONSVILLE*  CLOUDY    72  72  98 SW6       29.80R
ORANGE*        CLOUDY    72  70  94 CALM      29.80R
LOUISA*        CLOUDY    72  68  88 SW3       29.82R
BUMPASS*       FAIR      72  72 100 SW7       29.81R
FARMVILLE*     CLOUDY    73  70  91 S3        29.82R
CREWE*         FAIR      73  69  87 SW3       29.83R
FORT PICKETT*  FAIR      72  68  88 SW9       29.84R
CHASE CITY*    FAIR      72  72 100 CALM      29.85R
CLARKSVILLE*   FAIR      70  70 100 S5        29.86R
SOUTH HILL*    PTCLDY    71  70  96 S8        29.89S
LAWRENCEVILLE* FAIR      72  69  92 S7        29.84S
EMPORIA*       CLOUDY    72  68  88 S3        29.85R
$$

VAZ088>098-241200-
SOUTHEAST VIRGINIA

CITY           SKY/WX    TMP DP  RH WIND       PRES   REMARKS
NORFOLK        PTCLDY    74  71  91 SW12      29.82F
VIRGINIA BEACH MOCLDY    73  69  87 SW10      29.83S
NORFOLK NAVAL  MOCLDY    75  69  81 SW10      29.83F
WEST POINT*    CLOUDY    76  68  76 S5        29.81S
SALUDA*        FAIR      76  70  82 SW9       29.78S
NEWPORT NEWS   PTCLDY    75  69  81 SW14      29.81S
LANGLEY AFB    PTCLDY    76  70  82 S10       29.81S
FORT EUSTIS    PTCLDY    75  70  83 SW9       29.79S
WILLIAMSBURG*  PTCLDY    75  70  83 CALM      29.82S
HR EXEC AP*    NOT AVBL
FRANKLIN*      CLEAR     72  70  94 S7        29.84S
US460-WAKEFLD  MOCLDY    73  70  90 VRB5      29.83R
$$

VAZ020-022-025-037-045-241200-
WEST CENTRAL AND SOUTHWEST VIRGINIA

CITY           SKY/WX    TMP DP  RH WIND       PRES   REMARKS
STAUNTON*      PTCLDY    69  66  90 CALM      29.85S
WAYNESBORO*    MOSUNNY   70  69  95 SW6       29.86R
HOT SPRINGS VA DRZL/FOG  64  63  94 W17G23    29.99R VSB<1/4
LYNCHBURG      CLOUDY    69  69 100 S5        29.86R
DANVILLE       LGT RAIN  71  71 100 SW5       29.88R
SOUTH BOSTON*  FAIR      72  71  95 S5        29.86R
MARTINSVILLE   CLOUDY    69  68  97 CALM      29.91R
ROANOKE        PTCLDY    71  68  90 W7        29.90R
BLACKSBURG     MOCLDY    67  65  94 W3        29.97S
DUBLIN*        MOCLDY    71  64  78 W6        29.96S
MARION*        CLOUDY    69  65  88 W9        30.02S FOG
HILLSVILLE*    MOCLDY    67  63  86 NW5       29.97S
RICHLANDS*     CLOUDY    67  65  91 SW5       30.02S FOG
WISE*          FOG       68  68 100 W5        30.04R VSB 1/4
ABINGDON*      CLOUDY    69  69 100 W5        30.01R FOG
$$

MDZ021>025-VAZ099-100-241200-
SOUTHERN MARYLAND AND THE DELMARVA PENINSULA

CITY           SKY/WX    TMP DP  RH WIND       PRES   REMARKS
PATUXENT RIVER CLOUDY    75  72  90 SW10G24   29.77R
BAY BRIDGE APT NOT AVBL
LEONARDTOWN    MOCLDY    73  70  88 SW9       29.79R
DOVER          MOSUNNY   73  73 100 S3        29.74R
GEORGETOWN     CLOUDY    78  72  81 SW8       29.76S
EASTON         PTSUNNY   79  72  78 W3        29.80R
CAMBRIDGE      CLOUDY    77  73  88 CALM      29.76R
SALISBURY      SUNNY     75  73  94 SW6       29.76F
OCEAN CITY     CLOUDY    76  74  93 SW7       29.77S
WALLOPS ISLAND CLOUDY    77  72  84 SW9       29.79R
ACCOMACK*      MOSUNNY   78  71  78 SW7       29.79S
$$

NCZ012>017-030>032-241200-
NORTH CENTRAL AND EASTERN NORTH CAROLINA

CITY           SKY/WX    TMP DP  RH WIND       PRES   REMARKS
ROANOKE RAPIDS FAIR      72  72 100 SW6       29.86R
RALEIGH        MOCLDY    72  71  97 SW9       29.89R
ELIZABETH CITY PTCLDY    75  75 100 SW7       29.87R
AHOSKIE*         N/A     71  70  98 S5        29.86S
EDENTON*       PTCLDY    77  73  87 SW12      29.88S
CURRITUCK*     PTCLDY   N/A N/A N/A SW6       29.87S
KILL DEVIL HLS MOCLDY    77  74  89 SW7       29.86S
MANTEO         LGT RAIN  77  75  92 W8        29.88S
CAPE HATTERAS  PTCLDY    78  74  87 W12G20    29.91R
TARBORO*       NOT AVBL
GOLDSBORO      CLOUDY    74  74 100 SW7       29.88S
WASHINGTON     CLEAR     74  72  92 SW6       29.90S
GREENVILLE     CLOUDY    73  72  94 SW9       29.90F
NEW BERN       MOCLDY    78  76  93 SW6       29.92R
WILMINGTON     PTCLDY    79  75  87 SW7       29.92S
$$

VAZ048-241200-
ELSEWHERE

CITY           SKY/WX    TMP DP  RH WIND       PRES   REMARKS
HARRISBURG PA  CLOUDY    70  68  93 NW6       29.77R
BALTIMORE      CLOUDY    74  74 100 SW7       29.74R
ANNAPOLIS      LGT RAIN  77  75  93 SW5       29.76R
ANDREWS AFB    CLOUDY    75  70  86 SW7       29.77R
PHILADELPHIA   CLOUDY    73  71  93 E5        29.74R
HENDERSON NC   PTCLDY    69  66  92 SW10      29.86S
GREENSBORO     CLOUDY    72  72 100 SW7       29.89R
ROCKY MOUNT    MOCLDY    72  72 100 S8        29.88R
$$

VAZ100-241200-
MARINE

STATION/POSITION TIME  TEMP    WIND        PRES    WAVE   SWELL
                       AIR SEA DIR/SP/G            HT/PER HT/PER
                 (UTC) (F)     (DEG/KT/KT) (MB)    (FT/S) (FT/S)
BRANDYWINE LGT   1048   76     180/ 10/ 12 1007.9R
CAPE MAY NJ      1048   75 71  160/  3/  5 1007.1R
LEWES DE         1048   77 72  220/  4/  8 1007.3F
15NM E FENWICK I 1050   76 76  220/ 12/ 14 1008.4R   4/ 7   3/ 7
OCEAN-CITY-INLET 1048   77 73  250/  7/  9 1008.4R
WACHAPREAGUE VA  1048   79 82  210/  7/ 10 1008.7S
THOMAS POINT MD  1100   78 82  240/  9/ 10   N/A
COVE POINT MD    1048   76     250/ 16/ 21 1008.4R
SOLOMONS ISLAND  1048   77 83  230/ 12/ 17   N/A
BISHOPS HEAD MD  1048   80 81  240/ 18/ 20 1007.7R
PINEY POINT MD   1048          260/ 11/ 14   N/A
CAMBRIDGE MD     1048   77 86              1008.3R
LEWISETTA VA     1048   77 85  240/ 13/ 17 1008.0R
RAPPAHANNOCK LGT 1048          210/ 18/ 20 1009.3R
YORK RVR RNG VA  1048   77     230/ 18/ 20 1009.2F
YORKTOWN VA      1048   75 82  220/ 12/ 15 1008.8R
DOMINION TERM VA 1048   75     210/ 15/ 17 1009.6S
KIPTOPEKE VA     1048      78  210/ 15/ 18   N/A
CHES BAY BRIDGE  1048   75 77  210/ 16/ 19 1009.6S
CAPE HENRY VA    1048   74     200/ 11/ 16   N/A
WILLOUBY STN VA  1048   74     200/ 17/ 22 1009.5S
S CRANEY ISL VA  1048   74     200/  8/ 14 1009.8S
CAPE HENRY BUOY  1100      63                N/A     2/ 6
64NM E OF VA BCH 1050   78 79  240/ 12/ 14 1011.4F   4/ 7   3/ 7
DUCK PIER NC     1048   78 61  240/ 16/ 20 1011.0R
44100 DUCK FRF   1035      75                N/A     3/ 9
44056 DUCK FRF   1100      63                N/A     2/ 9
OREGON INLET NC  1048          230/ 16/ 20   N/A
HATTERAS NC      1048   78 77  240/ 10/ 16 1012.7R
DIAMOND SHLS NC  1050   83 84  240/ 25/ 29 1012.1R   8/ 8
CAPE LOOKOUT NC  1100   80     230/  9/ 12 1013.0R
$$




USA.gov is the U.S. government's official web portal to all federal, state and local government web resources and services.